| time (UTC) | temp F | wind direction | speed knots | gust knots | rain 1hr in | rain 24hr in | rain mn in | humidity % | barometer mb |
| 20260504050021 | 46 | 169 | 0.0 | 1.7 | 0.00 | 0.00 | 0.00 | 66 | 1010.5 |
| 20260504044525 | 46 | 169 | 0.9 | 2.6 | 0.00 | 0.00 | 0.00 | 68 | 1010.7 |
| 20260504043018 | 45 | 161 | 0.9 | 2.6 | 0.00 | 0.00 | 0.00 | 70 | 1010.9 |
| 20260504041516 | 45 | 340 | 0.0 | 0.9 | 0.00 | 0.00 | 0.00 | 69 | 1011.3 |
| 20260504040017 | 45 | 340 | 0.0 | 2.6 | 0.00 | 0.00 | 0.00 | 69 | 1011.3 |
| 20260504034513 | 45 | 340 | 0.0 | 1.7 | 0.00 | 0.00 | 0.00 | 69 | 1011.1 |
| 20260504033012 | 45 | 340 | 0.0 | 0.0 | 0.00 | 0.00 | 0.00 | 68 | 1011.0 |
| 20260504031514 | 45 | 340 | 0.9 | 1.7 | 0.00 | 0.00 | 0.00 | 69 | 1010.7 |
| 20260504030013 | 44 | 340 | 0.0 | 0.0 | 0.00 | 0.00 | 0.00 | 67 | 1010.7 |
| 20260504024511 | 44 | 340 | 0.0 | 2.6 | 0.00 | 0.00 | 0.00 | 67 | 1010.7 |
| 20260504023011 | 45 | 340 | 0.9 | 1.7 | 0.00 | 0.00 | 0.00 | 63 | 1010.6 |
| 20260504021510 | 45 | 340 | 0.0 | 1.7 | 0.00 | 0.00 | 0.00 | 61 | 1010.6 |
| 20260504020017 | 46 | 340 | 0.0 | 1.7 | 0.00 | 0.00 | 0.00 | 58 | 1010.6 |
| 20260504014510 | 47 | 340 | 0.0 | 0.9 | 0.00 | 0.00 | 0.00 | 55 | 1010.5 |
| 20260504013011 | 49 | 340 | 0.0 | 0.0 | 0.00 | 0.00 | 0.00 | 53 | 1010.4 |
| 20260504011511 | 50 | 340 | 0.0 | 0.9 | 0.00 | 0.00 | 0.00 | 50 | 1010.4 |
| 20260504010009 | 51 | 340 | 0.0 | 1.7 | 0.00 | 0.00 | 0.00 | 47 | 1010.2 |
| 20260504004514 | 51 | 315 | 1.7 | 7.8 | 0.00 | 0.00 | 0.00 | 46 | 1010.2 |
| 20260504003006 | 52 | 204 | 2.6 | 6.1 | 0.00 | 0.00 | 0.00 | 44 | 1010.1 |
| 20260504001507 | 52 | 248 | 5.2 | 7.8 | 0.00 | 0.00 | 0.00 | 43 | 1009.9 |
| 20260504000006 | 52 | 243 | 3.5 | 7.8 | 0.00 | 0.00 | 0.00 | 42 | 1009.8 |
| 20260503234506 | 53 | 187 | 4.3 | 9.6 | 0.00 | 0.00 | 0.00 | 39 | 1009.7 |
| 20260503233005 | 54 | 265 | 6.1 | 15.6 | 0.00 | 0.00 | 0.00 | 38 | 1009.5 |
| 20260503231506 | 54 | 188 | 6.1 | 11.3 | 0.00 | 0.00 | 0.00 | 37 | 1009.3 |
| 20260503230004 | 55 | 267 | 6.1 | 14.8 | 0.00 | 0.00 | 0.00 | 35 | 1009.3 |
| 20260503224502 | 55 | 281 | 5.2 | 15.6 | 0.00 | 0.00 | 0.00 | 34 | 1009.0 |
| 20260503223002 | 56 | 259 | 6.1 | 15.6 | 0.00 | 0.00 | 0.00 | 33 | 1008.9 |
| 20260503221502 | 56 | 254 | 7.0 | 15.6 | 0.00 | 0.00 | 0.00 | 32 | 1008.8 |
| 20260503220005 | 56 | 265 | 5.2 | 14.8 | 0.00 | 0.00 | 0.00 | 32 | 1008.9 |
| 20260503214602 | 56 | 216 | 5.2 | 12.2 | 0.00 | 0.00 | 0.00 | 31 | 1008.8 |
| 20260503213112 | 56 | 184 | 7.8 | 16.5 | 0.00 | 0.00 | 0.00 | 31 | 1008.9 |
| 20260503211559 | 56 | 178 | 10.4 | 20.9 | 0.00 | 0.00 | 0.00 | 30 | 1008.9 |
| 20260503210104 | 56 | 247 | 5.2 | 12.2 | 0.00 | 0.00 | 0.00 | 31 | 1008.9 |
| 20260503204558 | 55 | 323 | 8.7 | 14.8 | 0.00 | 0.00 | 0.00 | 31 | 1009.0 |
| 20260503203102 | 55 | 174 | 8.7 | 17.4 | 0.00 | 0.00 | 0.00 | 33 | 1009.2 |
| 20260503201555 | 55 | 313 | 7.0 | 16.5 | 0.00 | 0.00 | 0.00 | 34 | 1009.2 |
| 20260503200056 | 55 | 341 | 6.1 | 20.0 | 0.00 | 0.00 | 0.00 | 35 | 1009.4 |
| 20260503194549 | 54 | 323 | 3.5 | 11.3 | 0.00 | 0.00 | 0.00 | 37 | 1009.5 |
| 20260503193052 | 53 | 311 | 6.1 | 13.9 | 0.00 | 0.00 | 0.00 | 38 | 1009.8 |
| 20260503191548 | 53 | 315 | 5.2 | 9.6 | 0.00 | 0.00 | 0.00 | 38 | 1010.0 |
| 20260503190047 | 53 | 355 | 7.0 | 15.6 | 0.00 | 0.00 | 0.00 | 39 | 1010.1 |
| 20260503184555 | 53 | 236 | 4.3 | 9.6 | 0.00 | 0.00 | 0.00 | 41 | 1010.4 |
| 20260503183054 | 52 | 340 | 8.7 | 15.6 | 0.00 | 0.00 | 0.00 | 40 | 1010.3 |
| 20260503181541 | 51 | 163 | 8.7 | 14.8 | 0.00 | 0.00 | 0.00 | 42 | 1010.3 |
| 20260503180038 | 51 | 254 | 5.2 | 13.0 | 0.00 | 0.00 | 0.00 | 45 | 1010.5 |
| 20260503174535 | 51 | 252 | 4.3 | 20.0 | 0.00 | 0.00 | 0.00 | 45 | 1010.7 |
| 20260503173034 | 50 | 319 | 6.1 | 14.8 | 0.00 | 0.00 | 0.00 | 47 | 1010.9 |
| 20260503171531 | 48 | 309 | 5.2 | 14.8 | 0.00 | 0.00 | 0.00 | 48 | 1011.0 |
| 20260503081630 | 39 | 355 | 1.7 | 7.8 | 0.00 | 0.00 | 0.00 | 75 | 1011.3 |
| 20260503080112 | 39 | 16 | 3.5 | 7.0 | 0.00 | 0.00 | 0.00 | 75 | 1011.5 |
| 20260503071553 | 38 | 348 | 5.2 | 9.6 | 0.00 | 0.00 | 0.00 | 74 | 1011.7 |